Regional Weather Roundup
Issued by NWS Columbia, SC

Home | Current Version | Previous Version | Text Only | Print | Product List | Glossary On
Versions: 1 2 3 4 5 6 7 8 9 10 11 12 13 14 15 16 17 18 19 20 21 22 23 24 25 26 27 28
000
ASUS42 KCAE 251510
RWRCAE
REGIONAL WEATHER ROUNDUP
NATIONAL WEATHER SERVICE COLUMBIA SC
1100 AM EDT TUE APR 25 2017

NOTE: "FAIR" INDICATES FEW OR NO CLOUDS BELOW 12,000 FEET WITH NO
SIGNIFICANT WEATHER AND/OR OBSTRUCTIONS TO VISIBILITY.

NOT ALL STATIONS ARE QUALITY CONTROLLED BY THE NATIONAL
WEATHER SERVICE. USE DATA WITH CAUTION...ESPECIALLY
DEWPOINT OBSERVATIONS.

SCZ001>056-GAZ040-063>065-077-251600-
...UPSTATE SOUTH CAROLINA...

CITY           SKY/WX    TMP DP  RH WIND       PRES   REMARKS
ANDERSON       PTSUNNY   67  57  70 E5        29.75R
LIBERTY        SUNNY     68  56  65 CALM      29.73S
SPARTANBURG    PTSUNNY   63  54  72 N8        29.73F
CLEMSON        SUNNY     65  56  72 CALM      29.75S
GREENVILLE     MOSUNNY   68  55  63 NW6       29.74S
GREENWOOD      MOSUNNY   66  55  67 N6        29.75S
GREER          MOSUNNY   66  56  70 NE7       29.72F
ROCK HILL      LGT RAIN  58  56  93 N5        29.73R FOG
CHESTER        CLOUDY    57  55  94 N6        29.73S FOG
LAURENS        PTSUNNY   63  55  77 N7        29.73S


...CENTRAL SOUTH CAROLINA...

CITY           SKY/WX    TMP DP  RH WIND       PRES   REMARKS
COLUMBIA APT   PTSUNNY   67  55  65 NW9G20    29.71R
COLUMBIA OWENS   N/A    N/A N/A N/A MISG        N/A
MCENTIRE ANGB  PTSUNNY   63  57  79 W12       29.72R
ORANGEBURG     PTSUNNY   65  56  72 NW12G18   29.73R
SUMTER SHAW    CLOUDY    60  57  89 NW9       29.68S
NEWBERRY       PTSUNNY   63  55  77 N12G17    29.76R
AIKEN          PTSUNNY   63  55  77 W12       29.77S
BARNWELL       CLOUDY    66  59  77 VRB7      29.74F
MANNING        CLOUDY    59  55  88 NW14      29.70S
CAMDEN         FOG       59  57  94 W8        29.72R VSB 1
LANCASTER      LGT RAIN  57  57 100 NW5       29.73R
WINNSBORO      CLOUDY    59  57  94 NW8       29.72R


...EASTERN AND COASTAL SOUTH CAROLINA...

CITY           SKY/WX    TMP DP  RH WIND       PRES   REMARKS
MYRTLE BEACH   CLOUDY    61  57  88 W14       29.69R
N MYRTLE BCH   CLOUDY    61  60  97 W10       29.67R
CONWAY         CLOUDY    59  59 100 W7        29.68S FOG
MARION         DRIZZLE   59  59 100 W9        29.68S
HARTSVILLE     CLOUDY    57  55  94 CALM      29.69S
FLORENCE       CLOUDY    58  58 100 W8        29.69R FOG
DARLINGTON     CLOUDY    59  57  93 NW6       29.69R
CHARLESTON APT CLOUDY    63  56  78 W14       29.72R
MOUNT PLEASANT PTSUNNY   64  57  77 W12G20    29.71R
WALTERBORO     CLOUDY    61  55  82 NW9       29.75R
BEAUFORT       PTSUNNY   66  58  75 W15       29.75S


...EASTERN GEORGIA...

CITY           SKY/WX    TMP DP  RH WIND       PRES   REMARKS
AUGUSTA BUSH F MOSUNNY   71  58  63 VRB5      29.73F
AUGUSTA DANIEL SUNNY     69  55  60 NW7       29.75S
THOMSON        PTSUNNY   68  58  69 NW10G16   29.80R
WASHINGTON     PTSUNNY   66  61  82 W9        29.76S
CLAXTON        FAIR      67  61  79 NW6       29.79S
SYLVANIA       CLOUDY   N/A N/A N/A N8        29.77F
STATESBORO     PTSUNNY   67  56  66 NW7       29.77F
SAVANNAH       CLOUDY    64  54  69 NW14      29.78S


...SOUTHERN NORTH CAROLINA...

CITY           SKY/WX    TMP DP  RH WIND       PRES   REMARKS
CHARLOTTE      CLOUDY    60  54  80 N8        29.73R
MONROE         LGT RAIN  58  54  86 N8        29.70R
WADESBORO      CLOUDY    60  56  87 NW9       29.69R
RUTHERFORDTON  MOSUNNY   66  58  74 N6        29.74S
ASHEVILLE      MOSUNNY   62  51  67 N13       29.77F

$$




USA.gov is the U.S. government's official web portal to all federal, state and local government web resources and services.